COSMOS 917 DEB, 27887

Orbit data source: Space-Track

COSMOS 917 DEB, 27887 is space debris in HEO originally from a launch on Thu, 16 Jun 1977 UTC launched from the Plesetsk Missile And Space Complex (PKMTR). Debris objects in space refer to the collection of defunct objects orbiting the Earth. Examples of debris include non-operational satellites, rocket bodies, and fragments generated from explosions, collisions, or faulty payload assembly.

Loading next visibility...
Identifier
27887, 1977-047K
Orbit
HEO
Country
Flag of CISCIS
Related business
Manufacturer
Unknown
Mission
Spacecraft
Bus & Motor
Unknown
Mass
Unknown
Launch date (UTC)
1977-06-16 (49 years ago)
Launch vehicle
Unknown
Launch site
Plesetsk Missile And Space Complex (PKMTR)
Object type
Payload
Rocket body
Debris
Shape & HBR
Unknown shape, 0.8 m
Radar Cross Section
Medium (>0.1 m² and <1 m²)

Expand to show TLE details & history
Last TLE update: 1 week ago

TLE from 1 week ago
0 COSMOS 917 DEB
1 27887U 77047K   26163.51879987 -.00000504  00000-0  00000-0 0  9999
2 27887  63.2346 236.4961 6683755  10.5759 358.5493  1.97923105 27908
Epoch: 2026-06-12T12:27Z
TLE epoch observation values (Epoch: 2026-06-12T12:27:04.308Z)
Latitude
-0.00012°
Longitude
148.89123°
Altitude
2,552.62 km
Speed
8.626 km/s
True Right ascension
15h 46m 01s
True Declination
0° 00' 00"
Sunlit
Object was in full shadow at epoch
Visualization orbit readout
Latitude
Unknown
Longitude
Unknown
Altitude
Unknown
Speed
Unknown
Apparent Right ascension
Unknown
Apparent Declination
Unknown
Sunlit
N/A
Visualization observer readout
Local Sidereal Time
23:09:08
Azimuth
Unknown
Elevation
Unknown
Doppler factor
Unknown
Orbital elements
Apogee altitude
38,326.466 km
Perigee altitude
2,507.837 km
Semi-major axis
26,795.288 km
Eccentricity
0.66838
Inclination
63.2346°
RAAN
236.4961°
Arg. of periapsis
10.5759°
True anomaly
350.22619°
Mean anomaly
358.5493°
Eccentric anomaly
355.63399°
Mean motion
0.49483 °/min
Orbital period
727.52 mins
BSTAR
0
Loading maneuver chart data...
Computing Atmospheric mass density...
Loading historical data...
Loading historical data...
Loading historical data...
Loading historical data...
Loading historical data...
Loading historical data...
Loading historical data...

Documentation

Showing up to 5 results
|